Meteo Giornale » Osservazioni meteo Stati Uniti (USA) » Pawtucket

ore: 13:56 - Osservazioni Meteo Pawtucket
Lat. 41° 55' N Lon. 71° 30' W Alt. 134 metri s.l.m.

coperto_pioggia

16 °C

Pioggia Foschia

Temp. 24 Ore

16 °C

24 °C

Sud-Est

9.3 Km/h

Dew point 16 °C

Umidità 100 %

Visibilità  8 Km

Il sole sorge alle ore 06:11

Il sole tramonta alle ore 19:19

Data e Ora Cielo e Fenomeni T °C DP °C Um. % Pres. hPa Vis. km Vento km/h
Oggi h: 13:56 coperto_pioggia Pioggia Foschia 16 16 100 1017 8 SE 9.3
Oggi h: 13:49 coperto_pioggia Pioggia Foschia 16 16 100 1017 5 N 9.3
Oggi h: 13:39 nuvoloso_temporali Temporale nelle vicinanze Pioggia 16 16 100 1017 2 SE 11.1
Oggi h: 13:31 nuvoloso_temporali Temporale nelle vicinanze Pioggia 16 16 100 1017 3 N 9.3
Oggi h: 13:21 coperto_pioggia Pioggia Foschia 16 16 100 1018 5 N 9.3
Oggi h: 13:05 coperto_pioggia Pioggia Foschia 16 16 100 1018 3 N 11.1
Oggi h: 12:56 coperto_pioggia Pioggia Foschia 16 16 100 1018 5 N 9.3
Oggi h: 12:44 coperto_pioggia Pioggia Foschia 16 16 100 1018 2 N 7.4
Oggi h: 12:36 coperto_pioggia Pioggia Foschia 17 17 100 1018 5 N 9.3
Oggi h: 12:29 coperto_pioggia Pioggia Foschia 17 17 100 1017 6 N 9.3
Oggi h: 11:56 coperto_pioggia Pioggia 18 17 93 1017 11 N 11.1
Oggi h: 11:25 coperto_pioggia Pioggia 18 18 100 1018 10 N 7.4
Oggi h: 11:10 coperto_pioggia Pioggia 18 18 100 1018 13 N 5.5
Oggi h: 10:56 coperto_pioggia Pioggia 18 18 100 1018 10 S/SE 9.3
Oggi h: 10:48 coperto_pioggia Pioggia 19 19 100 1018 13 N 11.1
Oggi h: 10:31 coperto_pioggia Pioggia Foschia 19 19 100 1018 6 N 5.5
Oggi h: 10:21 coperto_pioggia Pioggia Foschia 19 19 100 1018 5 N 9.3
Oggi h: 10:16 coperto_pioggia Pioggia Foschia 19 19 100 1018 3 N 5.5
Oggi h: 09:56 coperto_pioggia Pioggia Foschia 19 19 100 1018 2 N 0
Oggi h: 09:45 coperto_pioggia Pioggia Foschia 19 19 100 1018 5 N 0
Oggi h: 09:08 coperto_pioggia Pioggia Foschia 19 19 100 1018 8 N 5.5
Oggi h: 09:05 coperto_pioggia Pioggia Foschia 19 19 100 1018 8 N 0
Oggi h: 08:56 coperto_pioggia Pioggia 19 19 100 1018 10 E/NE 7.4
Oggi h: 07:56 coperto Coperto 19 18 93 1018 10 N 0
Oggi h: 06:56 coperto Coperto 18 18 100 1017 10 N 0
Oggi h: 05:56 coperto Coperto 18 18 100 1017 10 N 0
Oggi h: 04:56 coperto Coperto 18 17 93 1017 10 N 0
Oggi h: 03:56 coperto_pioggia Pioggia 18 18 100 1018 10 N 0
Oggi h: 02:56 coperto Coperto 18 17 93 1018 10 N 0
Oggi h: 01:56 coperto Coperto 18 17 93 1018 10 N 0
Oggi h: 00:56 coperto Coperto 18 17 93 1018 10 N 0
Ieri h: 23:56 coperto Coperto 18 17 93 1019 10 N 5.5
Ieri h: 22:56 coperto Coperto 18 17 93 1019 10 N 5.5
Ieri h: 21:56 poco_nuvoloso Poco Nuvoloso 19 17 88 1019 10 N 5.5
Ieri h: 20:56 sereno Sereno 19 17 88 1019 10 N 5.5
Ieri h: 19:56 sereno Sereno 20 17 82 1019 10 N 5.5
Ieri h: 18:56 nuvoloso Nuvoloso 21 18 82 1019 10 S/SO 7.4
Ieri h: 17:56 sereno Sereno 22 17 73 1019 10 N 5.5
Ieri h: 16:56 molto_nuvoloso Molto Nuvoloso 23 17 68 1019 10 N 5.5
Ieri h: 15:56 coperto Coperto 24 17 64 1019 10 N 5.5
Ieri h: 14:56 molto_nuvoloso Molto Nuvoloso 24 16 60 1019 10 N 0